Tiempo cada hora Municipio Hato Corozal

Hoy, 18 Enero, Lunes

Tiempo Temperatura Precipitaciones Viento Presión Humedad
00:00 +25°C° 0 mm 2 mps 736 mmHg 69%
01:00 +25°C° 0 mm 2 mps 735 mmHg 68%
02:00 +24°C° 0 mm 2 mps 735 mmHg 66%
03:00 +24°C° 0 mm 2 mps 735 mmHg 63%
04:00 +24°C° 0 mm 2 mps 735 mmHg 61%
05:00 +24°C° 0 mm 2 mps 736 mmHg 60%
06:00 +25°C° 0 mm 2 mps 736 mmHg 59%
07:00 +25°C° 0 mm 2 mps 737 mmHg 58%
08:00 +27°C° 0 mm 3 mps 737 mmHg 54%
09:00 +29°C° 0 mm 4 mps 738 mmHg 50%
10:00 +33°C° 0 mm 5 mps 738 mmHg 46%
11:00 +33°C° 0 mm 5 mps 737 mmHg 44%
12:00 +34°C° 0 mm 5 mps 736 mmHg 42%
13:00 +35°C° 0 mm 5 mps 736 mmHg 40%
14:00 +35°C° 0 mm 5 mps 735 mmHg 41%
15:00 +35°C° 0 mm 5 mps 734 mmHg 41%
16:00 +34°C° 0 mm 5 mps 734 mmHg 42%
17:00 +32°C° 0 mm 4 mps 734 mmHg 49%
18:00 +29°C° 0 mm 3 mps 734 mmHg 56%
19:00 +27°C° 0 mm 2 mps 735 mmHg 63%
20:00 +26°C° 0 mm 2 mps 736 mmHg 65%
21:00 +26°C° 0 mm 2 mps 736 mmHg 67%
22:00 +25°C° 0 mm 1 mps 737 mmHg 69%
23:00 +25°C° 0 mm 1 mps 736 mmHg 68%

Mañana, 19 Enero, Martes

Tiempo Temperatura Precipitaciones Viento Presión Humedad
00:00 +25°C° 0 mm 2 mps 736 mmHg 68%
01:00 +24°C° 0 mm 2 mps 736 mmHg 67%
02:00 +24°C° 0 mm 2 mps 736 mmHg 64%
03:00 +24°C° 0 mm 2 mps 736 mmHg 62%
04:00 +24°C° 0 mm 2 mps 735 mmHg 60%
05:00 +24°C° 0 mm 2 mps 736 mmHg 57%
06:00 +25°C° 0 mm 2 mps 737 mmHg 55%
07:00 +25°C° 0 mm 2 mps 737 mmHg 53%
08:00 +28°C° 0 mm 3 mps 737 mmHg 50%
09:00 +30°C° 0 mm 5 mps 738 mmHg 48%
10:00 +33°C° 0 mm 6 mps 738 mmHg 45%
11:00 +34°C° 0 mm 6 mps 737 mmHg 42%
12:00 +35°C° 0 mm 6 mps 736 mmHg 39%
13:00 +36°C° 0 mm 6 mps 736 mmHg 36%
14:00 +35°C° 0 mm 5 mps 735 mmHg 36%
15:00 +35°C° 0 mm 5 mps 734 mmHg 37%
16:00 +35°C° 0 mm 5 mps 734 mmHg 38%
17:00 +33°C° 0 mm 4 mps 734 mmHg 45%
18:00 +30°C° 0 mm 3 mps 735 mmHg 52%
19:00 +27°C° 0 mm 2 mps 735 mmHg 60%
20:00 +27°C° 0 mm 2 mps 736 mmHg 62%
21:00 +26°C° 0 mm 2 mps 736 mmHg 63%
22:00 +26°C° 0 mm 1 mps 737 mmHg 65%
23:00 +25°C° 0 mm 2 mps 736 mmHg 64%

Pasado mañana, 20 Enero, Miércoles

Tiempo Temperatura Precipitaciones Viento Presión Humedad
00:00 +25°C° 0 mm 2 mps 736 mmHg 62%
01:00 +25°C° 0 mm 2 mps 736 mmHg 61%
02:00 +25°C° 0 mm 2 mps 736 mmHg 59%
03:00 +25°C° 0 mm 2 mps 736 mmHg 57%
04:00 +25°C° 0 mm 2 mps 735 mmHg 55%
05:00 +25°C° 0 mm 2 mps 736 mmHg 55%
06:00 +26°C° 0 mm 2 mps 736 mmHg 55%
07:00 +26°C° 0 mm 1 mps 737 mmHg 55%
08:00 +28°C° 0 mm 2 mps 737 mmHg 51%
09:00 +32°C° 0 mm 4 mps 737 mmHg 46%
10:00 +34°C° 0 mm 5 mps 738 mmHg 42%
11:00 +35°C° 0 mm 5 mps 737 mmHg 41%
12:00 +35°C° 0 mm 4 mps 736 mmHg 39%
13:00 +36°C° 0 mm 4 mps 735 mmHg 38%
14:00 +36°C° 0 mm 4 mps 734 mmHg 38%
15:00 +35°C° 0 mm 4 mps 734 mmHg 39%
16:00 +35°C° 0 mm 4 mps 733 mmHg 40%
17:00 +33°C° 0 mm 3 mps 734 mmHg 46%
18:00 +30°C° 0 mm 2 mps 734 mmHg 52%
19:00 +28°C° 0 mm 1 mps 735 mmHg 58%
20:00 +27°C° 0 mm 1 mps 735 mmHg 60%
21:00 +27°C° 0 mm 1 mps 736 mmHg 62%
22:00 +26°C° 0 mm 1 mps 736 mmHg 64%
23:00 +26°C° 0 mm 1 mps 736 mmHg 65%

21 Enero, Jueves

Tiempo Temperatura Precipitaciones Viento Presión Humedad
00:00 +25°C° 0 mm 1 mps 736 mmHg 65%
01:00 +25°C° 0 mm 1 mps 735 mmHg 65%
02:00 +25°C° 0 mm 1 mps 735 mmHg 65%
03:00 +25°C° 0 mm 1 mps 735 mmHg 65%
04:00 +24°C° 0 mm 1 mps 735 mmHg 65%
05:00 +25°C° 0 mm 1 mps 736 mmHg 64%
06:00 +25°C° 0 mm 1 mps 736 mmHg 63%
07:00 +26°C° 0 mm 1 mps 737 mmHg 62%
08:00 +28°C° 0 mm 2 mps 737 mmHg 55%
09:00 +30°C° 0 mm 3 mps 737 mmHg 49%
10:00 +34°C° 0 mm 4 mps 737 mmHg 43%
11:00 +34°C° 0 mm 4 mps 736 mmHg 42%
12:00 +35°C° 0 mm 4 mps 736 mmHg 41%
13:00 +36°C° 0 mm 4 mps 735 mmHg 39%
14:00 +36°C° 0 mm 4 mps 734 mmHg 40%
15:00 +35°C° 0 mm 3 mps 734 mmHg 40%
16:00 +35°C° 0 mm 3 mps 733 mmHg 41%
17:00 +33°C° 0 mm 3 mps 734 mmHg 47%
18:00 +30°C° 0 mm 2 mps 734 mmHg 53%
19:00 +29°C° 0 mm 1 mps 735 mmHg 59%
20:00 +28°C° 0 mm 1 mps 735 mmHg 61%
21:00 +27°C° 0 mm 1 mps 736 mmHg 64%
22:00 +27°C° 0 mm 1 mps 736 mmHg 66%
23:00 +26°C° 0 mm 1 mps 736 mmHg 67%

22 Enero, Viernes

Tiempo Temperatura Precipitaciones Viento Presión Humedad
00:00 +26°C° 0 mm 1 mps 736 mmHg 67%
01:00 +26°C° 0 mm 1 mps 736 mmHg 68%
02:00 +25°C° 0 mm 1 mps 736 mmHg 68%
03:00 +25°C° 0 mm 1 mps 736 mmHg 69%
04:00 +25°C° 0 mm 1 mps 736 mmHg 69%
05:00 +25°C° 0 mm 1 mps 736 mmHg 67%
06:00 +25°C° 0 mm 1 mps 737 mmHg 65%
07:00 +26°C° 0 mm 1 mps 737 mmHg 63%
08:00 +29°C° 0 mm 2 mps 737 mmHg 54%
09:00 +31°C° 0 mm 3 mps 738 mmHg 46%
10:00 +35°C° 0 mm 4 mps 738 mmHg 37%
11:00 +35°C° 0 mm 4 mps 737 mmHg 36%
12:00 +36°C° 0 mm 4 mps 736 mmHg 35%
13:00 +37°C° 0 mm 4 mps 736 mmHg 35%
14:00 +36°C° 0 mm 4 mps 735 mmHg 36%
15:00 +36°C° 0 mm 4 mps 734 mmHg 37%
16:00 +35°C° 0 mm 3 mps 734 mmHg 38%
17:00 +33°C° 0 mm 3 mps 734 mmHg 43%
18:00 +30°C° 0 mm 2 mps 734 mmHg 49%
19:00 +28°C° 0 mm 2 mps 735 mmHg 54%
20:00 +28°C° 0 mm 2 mps 735 mmHg 56%
21:00 +27°C° 0 mm 1 mps 736 mmHg 58%
22:00 +27°C° 0 mm 1 mps 737 mmHg 60%
23:00 +26°C° 0 mm 1 mps 736 mmHg 60%

23 Enero, Sábado

Tiempo Temperatura Precipitaciones Viento Presión Humedad
00:00 +26°C° 0 mm 1 mps 736 mmHg 61%
01:00 +26°C° 0 mm 1 mps 736 mmHg 61%
02:00 +25°C° 0 mm 1 mps 736 mmHg 62%
03:00 +25°C° 0 mm 1 mps 735 mmHg 62%
04:00 +25°C° 0 mm 1 mps 735 mmHg 62%
05:00 +25°C° 0 mm 1 mps 736 mmHg 60%
06:00 +26°C° 0 mm 1 mps 736 mmHg 58%
07:00 +27°C° 0 mm 2 mps 737 mmHg 56%
08:00 +29°C° 0 mm 3 mps 737 mmHg 50%
09:00 +33°C° 0 mm 4 mps 737 mmHg 43%
10:00 +35°C° 0 mm 5 mps 738 mmHg 36%
11:00 +35°C° 0 mm 5 mps 737 mmHg 36%
12:00 +36°C° 0 mm 4 mps 736 mmHg 36%
13:00 +36°C° 0 mm 4 mps 735 mmHg 36%
14:00 +36°C° 0 mm 4 mps 735 mmHg 37%
15:00 +36°C° 0 mm 4 mps 734 mmHg 38%
16:00 +35°C° 0 mm 4 mps 733 mmHg 39%
17:00 +34°C° 0 mm 3 mps 734 mmHg 45%
18:00 +31°C° 0 mm 2 mps 734 mmHg 52%
19:00 +29°C° 0 mm 2 mps 735 mmHg 58%
20:00 +28°C° 0 mm 1 mps 735 mmHg 59%
21:00 +27°C° 0 mm 1 mps 736 mmHg 61%
22:00 +27°C° 0 mm 1 mps 736 mmHg 63%
23:00 +27°C° 0 mm 1 mps 736 mmHg 63%
Mostrar más

Necesitamos Su Consentimiento

Meteoprog y nuestros Proveedores de Servicios pueden almacenar y acceder a sus datos personales como cookies, identificadores de dispositivo u otras tecnologías similares de su dispositivo y procesar dichos datos para personalizar contenido y anuncios, además de ofrecer funciones de redes sociales y analizar el tráfico.

  • Almacenar y/o acceder a información en su dispositivo

    Se puede almacenar o acceder a cookies, identificadores de dispositivo u otra información de su dispositivo para los fines anteriormente indicados.

  • Anuncios y contenido personalizados, medición de anuncios y contenido, percepciones del público, y desarrollo de productos

    Los anuncios y el contenido pueden personalizarse en base a su perfil. Se pueden añadir más datos para personalizar mejor los anuncios y contenidos. Se puede medir el rendimiento de los anuncios y contenidos. Se puede obtener la percepción sobre el público que ha visto los anuncios y contenidos. Dichos datos pueden usarse para desarrollar o mejorar la experiencia del usuario, sistemas y software.

Al hacer clic en ‘Estoy De Acuerdo’ usted permitirá el uso de las cookies, identificadores de dispositivo, balizas web u otras tecnologías similares indicadas. Su configuración puede cambiarse desde el navegador de su dispositivo.

Para ciertos fines, los intereses legítimos pueden ser considerados por encima del consentimiento. Puede leer más sobre ello en nuestra Política de Privacidad y Cookies.